Simultaneous Nadir Overpasses (SNOs) Predictions

Prediction of SNOs between NOAA-19 and NPP Satellite Orbit:

Table of predicted SNOs for the next 14.0 days since TLE Epoch: 1/30/2021
Index Date (NOAA-19) Time (NOAA-19) Lat,Lon (NOAA-19) SZA (NOAA-19 ) Date (NPP) Time (NPP) Lat,Lon (NPP) SZA (NPP ) Distance(km) Time Diff (sec)
1 01/30/2021 08:47:02 78.69, 19.58 97.83 01/30/2021 08:48:15 78.67, 19.49 97.79 2.88 73
2 01/30/2021 09:37:58 -78.68,-173.19 82.19 01/30/2021 09:39:00 -78.68,-173.29 82.21 2.13 62
3 01/30/2021 10:29:03 78.67, -6.06 97.80 01/30/2021 10:29:45 78.67, -5.91 97.77 3.40 42
4 01/30/2021 11:19:58 -78.70, 161.42 82.21 01/30/2021 11:20:30 -78.68, 161.32 82.22 2.61 32
5 01/30/2021 12:11:02 78.68, -31.46 97.79 01/30/2021 12:11:14 78.67, -31.31 97.76 3.36 12
6 01/30/2021 13:01:58 -78.68, 135.78 82.23 01/30/2021 13:01:59 -78.69, 135.92 82.24 3.18 1
7 01/30/2021 13:53:02 78.70, -56.85 97.77 01/30/2021 13:52:45 78.71, -56.94 97.80 2.93 17
8 01/30/2021 14:43:58 -78.69, 110.39 82.25 01/30/2021 14:43:29 -78.69, 110.52 82.25 2.79 29
9 01/30/2021 15:35:02 78.71, -82.24 97.75 01/30/2021 15:34:15 78.72, -82.34 97.79 2.31 47
10 01/30/2021 16:25:58 -78.71, 85.00 82.26 01/30/2021 16:24:59 -78.69, 85.12 82.26 2.94 59
11 01/30/2021 17:16:59 78.83,-106.88 97.75 01/30/2021 17:15:48 78.83,-108.45 97.94 33.86 71



Historial Predications of SNOs between NOAA-19 and NPP
